Wind_Speed
8 4 11 14 11 10 2 4 10 8 5 4 9 12 10 9 9 9 8 8 8 8 11 10 12 7 5 4 5 7 8 9 9 9 11 12 14 15 17 17 19 20 17 20
6 13 12 10 10 10 8 6 8 2 4 1 8 13 11 9 9 9 11 11 9 8 9 14 14 10 7 5 5 7 8 9 8 8 9 10 10 7 7 4 6 12 14 12
8 3 16 14 9 11 10 8 7 6 3 4 8 12 16 13 16 11 12 12 9 9 5 8 14 13 7 6 7 8 10 10 12 10 8 6 6 8 9 9 10 8 9 10
11 9 16 11 13 10 12 8 8 7 4 3 9 6 9 6 14 14 15 11 10 9 6 9 15 13 8 7 7 9 11 13 15 12 11 13 12 10 11 12 10 6 8 8
4 8 9 11 10 9 5 5 9 9 5 6 10 8 4 7 6 9 10 9 9 9 10 9 14 12 9 8 8 11 11 13 16 16 16 16 16 13 11 11 10 10 11 10
9 2 3 7 6 7 5 4 3 3 3 8 9 8 5 8 9 6 4 9 9 11 10 13 14 12 10 8 9 11 11 14 14 15 14 17 16 16 13 12 13 12 10 10
9 7 4 1 7 4 10 9 3 3 4 6 5 11 13 14 5 4 7 7 10 11 11 10 9 11 10 9 9 9 10 12 12 14 15 14 13 13 14 14 14 14 15 16
9 7 11 7 7 5 13 10 4 6 4 3 8 7 5 2 5 6 4 9 9 9 8 9 12 13 11 10 7 8 8 8 9 11 12 12 12 12 12 12 12 12 13 14
10 7 11 16 7 10 6 11 6 4 3 2 5 5 8 5 6 2 6 8 9 8 8 8 12 13 12 10 7 8 7 6 7 8 8 9 8 10 10 9 9 11 11 13
2 3 4 6 8 9 7 5 6 6 4 5 6 6 8 4 9 9 8 9 10 9 9 8 12 13 11 10 8 7 6 6 6 6 8 8 7 9 9 8 10 12 12 13
2 3 1 6 9 14 10 5 5 5 5 4 2 5 7 3 3 13 10 11 10 10 9 8 12 14 11 9 9 7 6 5 5 5 7 6 7 8 8 9 10 11 11 13
15 5 4 8 1 9 16 13 11 5 6 4 7 14 5 1 3 3 8 11 11 13 12 9 16 17 13 11 9 7 6 4 4 4 6 5 6 7 8 9 10 10 11 11
15 5 5 3 4 4 7 13 17 15 6 10 8 15 6 10 12 7 6 2 8 10 10 9 13 16 17 13 11 9 7 5 4 4 4 4 6 6 7 8 8 9 9 10
18 5 13 15 9 8 7 13 19 16 8 14 14 27 16 9 9 4 5 6 7 10 12 11 8 13 18 17 14 12 9 6 6 5 4 5 5 6 6 6 8 9 9 10
10 9 13 17 11 5 7 11 16 18 23 14 22 21 25 16 10 9 9 9 7 11 12 10 9 12 20 19 15 13 10 8 7 6 6 5 5 5 5 7 9 9 10 11
11 7 8 12 15 15 14 11 11 23 23 17 24 22 22 17 14 13 12 7 9 12 13 14 13 18 20 21 20 16 12 9 9 8 6 5 5 5 7 8 9 10 11 11
13 8 6 12 13 8 11 22 19 15 16 19 17 25 22 24 19 17 13 11 17 11 14 14 17 19 22 26 23 17 14 11 10 9 6 5 6 5 6 7 7 9 10 10
13 13 7 6 3 14 11 11 17 22 18 16 18 22 24 21 23 20 6 11 9 10 15 15 14 21 26 26 21 18 14 11 11 10 8 6 6 5 5 5 7 8 9 10
11 9 7 8 11 11 8 9 11 10 18 18 22 24 23 21 19 20 16 9 12 10 11 15 22 24 28 28 23 19 16 14 12 10 8 6 5 5 5 4 6 7 8 9
2 4 8 4 8 15 11 14 12 4 4 15 18 15 17 18 12 15 15 2 4 7 14 24 28 27 27 23 22 20 17 15 12 9 7 6 5 4 3 2 4 5 7 7
7 6 13 10 8 5 6 6 6 8 12 17 11 14 14 10 9 2 5 6 8 15 21 27 26 22 23 22 22 18 19 15 12 10 8 6 4 4 2 2 5 5 6 8
11 7 5 6 9 16 7 4 12 11 3 5 6 8 8 5 2 4 5 7 8 11 19 23 23 24 24 22 20 17 14 11 10 9 8 6 4 3 2 4 5 5 5 7
4 9 5 6 6 6 9 10 13 6 7 4 3 5 6 5 6 8 7 8 7 12 15 13 19 22 20 22 21 18 11 11 8 7 6 4 2 2 3 4 4 5 5 5
7 7 5 1 11 9 5 3 4 4 5 6 5 6 5 6 7 7 8 8 9 14 12 17 19 17 15 14 21 18 14 12 10 8 6 3 1 2 2 3 2 3 4 5
6 6 7 5 11 3 8 6 7 6 4 5 4 5 7 6 7 9 8 10 12 16 18 19 16 15 16 17 16 17 13 11 10 8 6 4 2 1 1 1 3 4 5 5
6 8 5 9 6 7 10 4 1 6 5 5 6 4 3 6 7 6 7 10 14 16 18 18 16 17 17 18 17 14 12 11 9 7 5 4 2 1 1 3 5 3 6 7
Wind_Direction
194 185 195 189 216 245 329 296 218 264 151 188 237 255 257 239 196 221 254 259 259 267 266 124 105 91 70 28 359 3 353 350 339 309 304 285 263 260 256 251 251 266 262 259
164 218 204 217 199 229 261 255 282 262 86 124 289 279 269 247 250 221 221 234 237 242 257 128 112 99 78 58 38 25 20 11 355 348 308 290 304 305 334 323 269 281 261 284
194 185 213 207 213 206 220 224 255 261 163 265 292 280 253 247 245 228 232 237 233 242 224 127 111 99 93 66 48 35 31 29 19 6 7 331 293 288 292 296 283 286 286 298
227 209 183 217 212 204 225 213 235 284 305 259 161 286 301 284 230 227 232 237 228 197 116 114 118 114 113 86 75 56 52 50 37 39 46 46 47 47 28 24 21 355 14 346
186 198 194 200 207 202 226 235 221 227 257 285 264 279 255 239 199 205 224 217 206 161 138 121 115 124 120 104 84 68 62 59 55 51 60 54 50 32 21 1 357 5 9 8
227 34 298 187 215 193 131 111 152 230 214 245 217 225 228 215 214 218 245 183 153 136 126 118 130 131 111 97 80 76 62 56 57 54 60 62 55 49 49 43 35 27 22 11
226 179 155 141 182 153 154 148 159 208 212 233 214 207 245 296 317 203 188 167 141 134 131 134 151 137 115 94 82 69 64 58 56 56 50 52 54 51 43 33 28 21 14 7
188 196 184 172 196 169 190 189 167 184 199 263 174 233 244 32 219 200 181 147 135 137 145 148 143 138 131 115 112 101 88 72 65 65 57 52 48 49 42 32 30 26 15 8
193 227 165 173 176 168 175 219 235 334 135 89 227 258 306 188 269 297 140 137 148 154 139 140 145 152 146 140 138 120 108 85 68 63 65 53 42 40 33 23 15 7 3 359
141 156 340 151 182 239 164 150 192 215 209 222 244 241 230 127 204 224 177 184 165 160 151 149 157 152 150 152 147 123 112 99 81 73 67 57 38 40 33 20 17 8 4 360
181 158 204 115 210 186 195 203 224 174 217 192 256 239 194 150 356 202 202 181 166 161 160 158 162 160 161 163 154 145 129 118 93 78 68 53 34 32 29 19 12 8 3 6
198 121 179 212 180 227 210 208 202 188 212 248 268 263 306 145 68 26 222 183 174 169 167 162 163 165 174 173 169 157 148 136 93 72 72 55 36 31 26 20 15 10 14 12
180 185 146 173 269 303 225 214 221 221 251 226 233 257 205 252 241 193 202 172 175 163 157 152 161 174 181 179 173 166 169 154 129 104 95 70 51 42 32 24 19 20 22 21
172 160 217 222 223 139 199 209 213 219 221 231 224 257 257 271 290 239 161 209 192 157 164 174 169 177 186 179 181 172 170 169 142 134 117 88 66 53 40 33 33 30 33 30
163 218 212 240 260 225 191 206 216 219 231 221 245 240 257 255 248 257 230 227 185 177 183 176 178 181 183 179 175 171 172 175 153 146 128 99 82 70 56 47 40 35 35 36
177 229 191 238 236 235 244 198 210 223 235 247 252 261 268 275 276 281 279 273 220 197 189 194 191 182 182 173 178 176 175 174 160 147 131 114 94 75 57 48 38 34 33 32
180 207 159 236 235 237 252 235 220 223 227 228 240 249 259 267 268 262 261 250 255 203 200 197 201 187 173 173 173 174 175 174 160 149 140 121 107 90 66 52 40 33 29 25
192 202 208 249 78 236 235 231 219 229 234 232 243 250 252 257 267 270 235 243 244 216 208 207 177 168 166 168 166 164 170 168 158 150 144 133 119 101 78 52 34 22 21 17
203 186 212 234 237 260 305 231 207 206 239 233 238 247 257 266 272 281 262 217 229 225 216 196 171 154 152 158 163 165 161 163 160 153 148 138 126 107 88 50 23 10 10 4
212 177 201 191 230 237 242 237 226 181 238 240 235 242 244 253 262 268 281 159 95 77 139 132 135 136 142 151 158 158 160 158 151 152 144 145 133 114 88 31 21 6 358 349
202 203 219 228 242 252 229 142 88 167 235 249 216 228 246 239 241 296 98 64 96 112 115 121 124 127 136 152 158 153 158 151 160 162 154 153 146 119 119 23 20 3 2 342
186 187 199 219 231 247 202 95 187 218 155 215 201 214 230 233 159 129 112 117 114 121 128 132 128 129 143 155 156 148 143 156 164 159 155 150 129 120 45 22 20 1 358 351
199 201 192 174 215 217 191 199 218 201 212 229 185 189 194 198 193 162 162 142 129 133 134 132 130 129 141 153 158 141 142 156 163 150 136 130 112 108 60 19 16 356 354 355
225 216 211 208 250 237 236 225 163 140 192 181 179 171 177 195 179 175 154 147 141 139 136 132 131 125 124 140 145 156 160 158 152 144 136 118 122 64 37 20 351 333 340 346
204 153 206 259 260 3 302 251 211 222 194 181 167 192 211 191 192 171 164 153 147 140 135 139 143 141 138 152 151 149 152 151 143 140 139 153 175 110 25 300 311 325 308 306
196 213 197 236 231 190 239 222 113 202 206 201 169 171 196 191 173 146 139 143 146 140 140 138 142 140 145 158 155 150 148 150 148 144 154 183 180 175 255 295 307 284 292 293
Height
816 823 824 823 823 821 817 828 829 819 811 819 825 820 814 808 811 813 812 811 811 811 809 810 811 814 817 819 821 820 819 818 817 817 816 817 817 817 818 819 819 820 822 824
819 820 814 812 816 822 824 829 829 814 813 821 825 820 809 806 804 804 806 807 807 808 807 809 811 814 818 821 820 819 818 816 815 814 814 814 815 815 816 817 817 817 818 820
810 805 808 810 816 821 826 830 831 828 820 822 828 821 810 800 794 796 796 797 800 803 805 808 810 814 820 821 820 819 818 816 815 813 812 811 813 814 815 816 816 817 816 817
809 800 805 812 813 816 826 821 825 827 831 843 823 842 804 791 788 792 792 794 794 797 802 805 810 817 821 822 822 820 818 817 816 814 812 811 812 813 816 815 815 816 816 816
804 801 805 809 809 811 820 816 822 829 834 837 834 836 805 794 795 794 791 791 791 794 799 806 812 818 821 821 821 820 819 817 816 815 814 814 814 815 814 814 814 816 816 815
802 803 803 803 805 809 813 822 825 828 836 839 832 834 807 796 789 784 782 784 787 793 800 807 813 817 819 820 820 819 818 818 817 817 816 816 817 817 816 817 817 816 815 814
804 805 802 803 809 809 815 827 842 849 845 842 812 826 800 782 780 780 784 783 788 793 799 806 812 816 818 818 819 819 819 819 819 819 819 819 819 819 819 819 819 818 816 815
804 810 804 804 804 811 814 817 828 837 836 825 818 819 797 778 774 775 775 784 788 794 798 804 809 814 816 816 819 819 819 820 820 820 820 820 820 820 820 820 820 819 818 817
794 793 786 794 796 802 814 819 810 825 838 841 817 798 786 778 778 777 783 786 792 795 799 804 808 813 814 815 818 817 817 818 819 819 820 820 819 819 819 819 819 819 818 816
774 791 794 793 798 799 804 804 824 824 843 841 811 805 793 784 784 779 782 783 788 793 799 804 808 811 814 815 815 815 816 817 819 819 820 820 820 819 819 819 818 818 817 816
774 782 806 803 797 795 802 807 806 805 818 823 819 799 768 772 772 774 775 776 781 788 796 801 805 809 812 813 814 814 816 816 817 817 818 819 819 820 819 819 819 817 816 815
771 786 803 797 788 788 788 792 795 804 812 807 802 788 763 766 766 766 771 770 774 779 787 795 800 805 809 810 812 813 814 815 815 816 816 816 817 818 819 818 818 817 815 815
765 786 799 802 804 798 793 793 792 797 805 809 810 776 761 761 764 763 765 765 772 777 784 790 797 801 805 808 810 811 812 812 813 814 815 815 816 817 818 818 818 816 815 814
759 772 768 766 761 786 796 786 788 790 799 792 797 771 768 769 768 763 766 765 769 774 780 785 791 796 801 804 806 807 809 810 811 813 813 814 815 815 816 817 817 816 814 813
763 772 766 762 764 767 772 779 783 788 780 786 770 776 757 763 766 766 764 763 767 772 774 780 787 791 795 798 802 804 807 808 809 811 811 812 813 814 816 816 816 816 814 814
755 768 768 769 762 765 770 777 775 774 773 777 771 771 752 754 755 759 759 761 763 764 767 771 775 780 785 790 796 800 803 805 807 807 809 811 812 812 813 814 815 815 815 815
754 759 768 767 764 773 777 760 762 768 765 764 772 757 754 748 752 752 753 755 753 757 759 763 766 771 776 782 789 795 799 802 803 804 806 807 809 810 811 812 813 813 813 814
747 758 763 766 781 766 744 740 745 749 750 753 754 748 742 744 738 738 746 747 746 747 747 751 758 764 770 777 784 790 795 800 802 803 805 806 808 809 810 811 811 812 812 813
735 751 756 760 758 749 750 737 739 746 743 741 742 739 738 737 736 733 732 737 737 736 737 741 748 757 764 772 779 787 793 797 801 803 803 805 807 807 808 809 810 812 810 811
743 742 752 757 751 747 730 726 729 732 755 730 726 732 733 732 742 730 722 727 733 732 733 739 747 756 764 772 779 787 793 796 799 801 802 803 804 805 808 808 807 809 809 810
746 744 744 749 746 754 726 726 725 750 733 716 723 723 726 731 726 730 733 734 735 735 739 741 748 757 764 772 780 785 789 793 795 798 799 801 803 804 804 804 806 806 806 807
735 739 743 746 744 743 716 726 730 715 711 712 719 721 725 725 729 734 737 740 741 745 743 745 750 754 764 772 778 784 789 792 795 796 797 799 800 803 802 803 804 804 804 805
734 721 728 732 727 709 706 707 708 709 712 713 715 719 721 726 731 733 738 740 744 748 751 758 755 757 763 765 773 781 786 789 793 794 796 798 799 800 799 800 801 804 804 804
713 710 721 720 709 705 701 703 704 709 712 714 717 719 722 723 729 732 735 739 742 747 754 756 762 764 768 774 768 776 784 785 789 793 795 796 799 797 797 799 801 802 803 803
716 712 715 724 704 703 703 703 702 704 708 712 716 718 720 723 726 728 733 736 741 744 751 755 765 767 768 770 777 773 781 784 787 789 792 795 797 795 795 798 799 799 801 801
704 704 711 700 695 699 696 694 699 702 707 710 714 717 719 722 726 729 733 739 744 745 750 754 764 768 771 772 775 776 777 781 785 788 791 793 793 793 794 795 794 796 798 799